owner,sensor,date,latitude,longitude,vertical_datum,sea_water_practical_salinity,qcFlag 
NERRS,ioos:station:NOAA.NERRS:gtmpcwq:1,2014-07-01T00:45:00Z,29.6671,-81.2574,1.35,14.7,1111122 
NERRS,ioos:station:NOAA.NERRS:gtmpcwq:1,2014-07-01T02:45:00Z,29.6671,-81.2574,1.48,17.0,1111122 
NERRS,ioos:station:NOAA.NERRS:gtmpcwq:1,2014-07-01T03:45:00Z,29.6671,-81.2574,1.61,18.9,1111122 
NERRS,ioos:station:NOAA.NERRS:gtmpcwq:1,2014-07-01T04:45:00Z,29.6671,-81.2574,1.69,22.2,1111122 
NERRS,ioos:station:NOAA.NERRS:gtmpcwq:1,2014-07-01T06:45:00Z,29.6671,-81.2574,1.8,26.9,1111122 
NERRS,ioos:station:NOAA.NERRS:gtmpcwq:1,2014-07-01T07:45:00Z,29.6671,-81.2574,1.79,27.8,1111122 
NERRS,ioos:station:NOAA.NERRS:gtmpcwq:1,2014-07-01T08:45:00Z,29.6671,-81.2574,1.72,26.7,1111122 
NERRS,ioos:station:NOAA.NERRS:gtmpcwq:1,2014-07-01T09:45:00Z,29.6671,-81.2574,1.65,23.2,1111122 
NERRS,ioos:station:NOAA.NERRS:gtmpcwq:1,2014-07-01T10:45:00Z,29.6671,-81.2574,1.56,20.0,1111122 
NERRS,ioos:station:NOAA.NERRS:gtmpcwq:1,2014-07-01T11:45:00Z,29.6671,-81.2574,1.47,16.5,1111122 
NERRS,ioos:station:NOAA.NERRS:gtmpcwq:1,2014-07-01T12:45:00Z,29.6671,-81.2574,1.39,14.8,1111122 
NERRS,ioos:station:NOAA.NERRS:gtmpcwq:1,2014-07-01T13:45:00Z,29.6671,-81.2574,1.34,15.2,1111122 
NERRS,ioos:station:NOAA.NERRS:gtmpcwq:1,2014-07-01T14:45:00Z,29.6671,-81.2574,1.36,14.5,1111122 
NERRS,ioos:station:NOAA.NERRS:gtmpcwq:1,2014-07-01T15:45:00Z,29.6671,-81.2574,1.46,16.7,1111122 
NERRS,ioos:station:NOAA.NERRS:gtmpcwq:1,2014-07-01T16:45:00Z,29.6671,-81.2574,1.58,19.1,1111122 
NERRS,ioos:station:NOAA.NERRS:gtmpcwq:1,2014-07-01T17:45:00Z,29.6671,-81.2574,1.66,21.9,1111122 
NERRS,ioos:station:NOAA.NERRS:gtmpcwq:1,2014-07-01T19:45:00Z,29.6671,-81.2574,1.71,26.7,1111122 
NERRS,ioos:station:NOAA.NERRS:gtmpcwq:1,2014-07-01T20:45:00Z,29.6671,-81.2574,1.64,25.4,1111122 
NERRS,ioos:station:NOAA.NERRS:gtmpcwq:1,2014-07-01T22:45:00Z,29.6671,-81.2574,1.46,17.7,1111122 
NERRS,ioos:station:NOAA.NERRS:gtmpcwq:1,2014-07-01T23:45:00Z,29.6671,-81.2574,1.38,15.7,1111122 
NERRS,ioos:station:NOAA.NERRS:gtmpcwq:1,2014-07-02T00:45:00Z,29.6671,-81.2574,1.32,16.3,1111122 
NERRS,ioos:station:NOAA.NERRS:gtmpcwq:1,2014-07-02T01:45:00Z,29.6671,-81.2574,1.29,15.9,1111122 
NERRS,ioos:station:NOAA.NERRS:gtmpcwq:1,2014-07-02T02:45:00Z,29.6671,-81.2574,1.35,13.8,1111122 
NERRS,ioos:station:NOAA.NERRS:gtmpcwq:1,2014-07-02T03:45:00Z,29.6671,-81.2574,1.45,17.7,1111122 
NERRS,ioos:station:NOAA.NERRS:gtmpcwq:1,2014-07-02T04:45:00Z,29.6671,-81.2574,1.57,19.3,1111122 
NERRS,ioos:station:NOAA.NERRS:gtmpcwq:1,2014-07-02T06:45:00Z,29.6671,-81.2574,1.72,25.8,1111122 
NERRS,ioos:station:NOAA.NERRS:gtmpcwq:1,2014-07-02T07:45:00Z,29.6671,-81.2574,1.74,27.5,1111122 
NERRS,ioos:station:NOAA.NERRS:gtmpcwq:1,2014-07-02T08:45:00Z,29.6671,-81.2574,1.69,27.3,1111122 
NERRS,ioos:station:NOAA.NERRS:gtmpcwq:1,2014-07-02T09:45:00Z,29.6671,-81.2574,1.61,24.7,1111122 
NERRS,ioos:station:NOAA.NERRS:gtmpcwq:1,2014-07-02T12:45:00Z,29.6671,-81.2574,1.36,15.8,1111122 
NERRS,ioos:station:NOAA.NERRS:gtmpcwq:1,2014-07-02T14:45:00Z,29.6671,-81.2574,1.29,15.9,1111122 
NERRS,ioos:station:NOAA.NERRS:gtmpcwq:1,2014-07-02T15:45:00Z,29.6671,-81.2574,1.35,14.6,1111122 
NERRS,ioos:station:NOAA.NERRS:gtmpcwq:1,2014-07-02T16:45:00Z,29.6671,-81.2574,1.45,17.4,1111122 
NERRS,ioos:station:NOAA.NERRS:gtmpcwq:1,2014-07-02T17:45:00Z,29.6671,-81.2574,1.57,19.6,1111122 
NERRS,ioos:station:NOAA.NERRS:gtmpcwq:1,2014-07-02T18:45:00Z,29.6671,-81.2574,1.64,23.4,1111122 
NERRS,ioos:station:NOAA.NERRS:gtmpcwq:1,2014-07-02T19:45:00Z,29.6671,-81.2574,1.68,25.8,1111122 
NERRS,ioos:station:NOAA.NERRS:gtmpcwq:1,2014-07-02T20:45:00Z,29.6671,-81.2574,1.66,26.1,1111122 
NERRS,ioos:station:NOAA.NERRS:gtmpcwq:1,2014-07-02T22:45:00Z,29.6671,-81.2574,1.49,19.1,1111122 
NERRS,ioos:station:NOAA.NERRS:gtmpcwq:1,2014-07-02T23:45:00Z,29.6671,-81.2574,1.4,17.0,1111122 
NERRS,ioos:station:NOAA.NERRS:gtmpcwq:1,2014-07-03T00:45:00Z,29.6671,-81.2574,1.33,17.2,1111122 
NERRS,ioos:station:NOAA.NERRS:gtmpcwq:1,2014-07-03T02:45:00Z,29.6671,-81.2574,1.24,15.8,1111122 
NERRS,ioos:station:NOAA.NERRS:gtmpcwq:1,2014-07-03T03:45:00Z,29.6671,-81.2574,1.31,15.2,1111122 
NERRS,ioos:station:NOAA.NERRS:gtmpcwq:1,2014-07-03T04:45:00Z,29.6671,-81.2574,1.43,18.2,1111122 
NERRS,ioos:station:NOAA.NERRS:gtmpcwq:1,2014-07-03T05:45:00Z,29.6671,-81.2574,1.55,21.9,1111122 
NERRS,ioos:station:NOAA.NERRS:gtmpcwq:1,2014-07-03T06:45:00Z,29.6671,-81.2574,1.63,25.1,1111122 
NERRS,ioos:station:NOAA.NERRS:gtmpcwq:1,2014-07-03T07:45:00Z,29.6671,-81.2574,1.69,26.4,1111122 
NERRS,ioos:station:NOAA.NERRS:gtmpcwq:1,2014-07-03T08:45:00Z,29.6671,-81.2574,1.68,27.3,1111122 
NERRS,ioos:station:NOAA.NERRS:gtmpcwq:1,2014-07-03T09:45:00Z,29.6671,-81.2574,1.62,26.4,1111122 
NERRS,ioos:station:NOAA.NERRS:gtmpcwq:1,2014-07-03T10:45:00Z,29.6671,-81.2574,1.54,24.0,1111122 
NERRS,ioos:station:NOAA.NERRS:gtmpcwq:1,2014-07-03T12:45:00Z,29.6671,-81.2574,1.37,20.1,1111122 
NERRS,ioos:station:NOAA.NERRS:gtmpcwq:1,2014-07-03T13:45:00Z,29.6671,-81.2574,1.3,20.2,1111122 
NERRS,ioos:station:NOAA.NERRS:gtmpcwq:1,2014-07-03T14:45:00Z,29.6671,-81.2574,1.25,17.5,1111122 
NERRS,ioos:station:NOAA.NERRS:gtmpcwq:1,2014-07-03T15:45:00Z,29.6671,-81.2574,1.26,15.1,1111122 
NERRS,ioos:station:NOAA.NERRS:gtmpcwq:1,2014-07-03T16:45:00Z,29.6671,-81.2574,1.34,15.0,1111122 
NERRS,ioos:station:NOAA.NERRS:gtmpcwq:1,2014-07-03T17:45:00Z,29.6671,-81.2574,1.45,19.0,1111122 
NERRS,ioos:station:NOAA.NERRS:gtmpcwq:1,2014-07-03T18:45:00Z,29.6671,-81.2574,1.56,22.4,1111122 
NERRS,ioos:station:NOAA.NERRS:gtmpcwq:1,2014-07-03T20:45:00Z,29.6671,-81.2574,1.66,25.5,1111122 
NERRS,ioos:station:NOAA.NERRS:gtmpcwq:1,2014-07-03T22:45:00Z,29.6671,-81.2574,1.54,22.5,1111122 
NERRS,ioos:station:NOAA.NERRS:gtmpcwq:1,2014-07-03T23:45:00Z,29.6671,-81.2574,1.46,20.3,1111122 
NERRS,ioos:station:NOAA.NERRS:gtmpcwq:1,2014-07-04T00:45:00Z,29.6671,-81.2574,1.38,22.2,1111122 
NERRS,ioos:station:NOAA.NERRS:gtmpcwq:1,2014-07-04T01:45:00Z,29.6671,-81.2574,1.32,21.7,1111122 
NERRS,ioos:station:NOAA.NERRS:gtmpcwq:1,2014-07-04T02:45:00Z,29.6671,-81.2574,1.26,20.9,1111122 
NERRS,ioos:station:NOAA.NERRS:gtmpcwq:1,2014-07-04T03:45:00Z,29.6671,-81.2574,1.23,16.6,1111122 
NERRS,ioos:station:NOAA.NERRS:gtmpcwq:1,2014-07-04T04:45:00Z,29.6671,-81.2574,1.27,14.5,1111122 
NERRS,ioos:station:NOAA.NERRS:gtmpcwq:1,2014-07-04T06:45:00Z,29.6671,-81.2574,1.47,20.6,1111122 
NERRS,ioos:station:NOAA.NERRS:gtmpcwq:1,2014-07-04T07:45:00Z,29.6671,-81.2574,1.58,23.0,1111122 
NERRS,ioos:station:NOAA.NERRS:gtmpcwq:1,2014-07-04T08:45:00Z,29.6671,-81.2574,1.63,24.3,1111122 
NERRS,ioos:station:NOAA.NERRS:gtmpcwq:1,2014-07-04T09:45:00Z,29.6671,-81.2574,1.59,23.8,1111122 
NERRS,ioos:station:NOAA.NERRS:gtmpcwq:1,2014-07-04T10:45:00Z,29.6671,-81.2574,1.51,21.7,1111122 
NERRS,ioos:station:NOAA.NERRS:gtmpcwq:1,2014-07-04T11:45:00Z,29.6671,-81.2574,1.44,21.9,1111122 
NERRS,ioos:station:NOAA.NERRS:gtmpcwq:1,2014-07-04T12:45:00Z,29.6671,-81.2574,1.37,22.0,1111122 
NERRS,ioos:station:NOAA.NERRS:gtmpcwq:1,2014-07-04T13:45:00Z,29.6671,-81.2574,1.3,21.5,1111122 
NERRS,ioos:station:NOAA.NERRS:gtmpcwq:1,2014-07-04T14:45:00Z,29.6671,-81.2574,1.24,20.7,1111122 
NERRS,ioos:station:NOAA.NERRS:gtmpcwq:1,2014-07-04T15:45:00Z,29.6671,-81.2574,1.19,19.9,1111122 
NERRS,ioos:station:NOAA.NERRS:gtmpcwq:1,2014-07-04T16:45:00Z,29.6671,-81.2574,1.17,17.7,1111122 
NERRS,ioos:station:NOAA.NERRS:gtmpcwq:1,2014-07-04T17:45:00Z,29.6671,-81.2574,1.23,12.6,1111122 
NERRS,ioos:station:NOAA.NERRS:gtmpcwq:1,2014-07-04T18:45:00Z,29.6671,-81.2574,1.33,17.6,1111122 
NERRS,ioos:station:NOAA.NERRS:gtmpcwq:1,2014-07-04T19:45:00Z,29.6671,-81.2574,1.46,20.1,1111122 
NERRS,ioos:station:NOAA.NERRS:gtmpcwq:1,2014-07-04T20:45:00Z,29.6671,-81.2574,1.59,22.1,1111122 
NERRS,ioos:station:NOAA.NERRS:gtmpcwq:1,2014-07-04T21:45:00Z,29.6671,-81.2574,1.61,23.5,1111122 
NERRS,ioos:station:NOAA.NERRS:gtmpcwq:1,2014-07-04T22:45:00Z,29.6671,-81.2574,1.53,22.4,1111122 
NERRS,ioos:station:NOAA.NERRS:gtmpcwq:1,2014-07-04T23:45:00Z,29.6671,-81.2574,1.44,21.1,1111122 
NERRS,ioos:station:NOAA.NERRS:gtmpcwq:1,2014-07-05T01:45:00Z,29.6671,-81.2574,1.31,21.3,1111122 
NERRS,ioos:station:NOAA.NERRS:gtmpcwq:1,2014-07-05T02:45:00Z,29.6671,-81.2574,1.25,20.7,1111122 
NERRS,ioos:station:NOAA.NERRS:gtmpcwq:1,2014-07-05T03:45:00Z,29.6671,-81.2574,1.2,19.6,1111122 
NERRS,ioos:station:NOAA.NERRS:gtmpcwq:1,2014-07-05T04:45:00Z,29.6671,-81.2574,1.17,18.8,1111122 
NERRS,ioos:station:NOAA.NERRS:gtmpcwq:1,2014-07-05T05:45:00Z,29.6671,-81.2574,1.2,13.4,1111122 
NERRS,ioos:station:NOAA.NERRS:gtmpcwq:1,2014-07-05T06:45:00Z,29.6671,-81.2574,1.28,16.3,1111122 
NERRS,ioos:station:NOAA.NERRS:gtmpcwq:1,2014-07-05T07:45:00Z,29.6671,-81.2574,1.38,16.9,1111122 
NERRS,ioos:station:NOAA.NERRS:gtmpcwq:1,2014-07-05T08:45:00Z,29.6671,-81.2574,1.48,20.2,1111122 
NERRS,ioos:station:NOAA.NERRS:gtmpcwq:1,2014-07-05T09:45:00Z,29.6671,-81.2574,1.51,23.0,1111122 
NERRS,ioos:station:NOAA.NERRS:gtmpcwq:1,2014-07-05T10:45:00Z,29.6671,-81.2574,1.45,23.1,1111122 
NERRS,ioos:station:NOAA.NERRS:gtmpcwq:1,2014-07-05T11:45:00Z,29.6671,-81.2574,1.38,23.3,1111122 
NERRS,ioos:station:NOAA.NERRS:gtmpcwq:1,2014-07-05T12:45:00Z,29.6671,-81.2574,1.32,23.0,1111122 
NERRS,ioos:station:NOAA.NERRS:gtmpcwq:1,2014-07-05T13:45:00Z,29.6671,-81.2574,1.26,22.4,1111122 
NERRS,ioos:station:NOAA.NERRS:gtmpcwq:1,2014-07-05T14:45:00Z,29.6671,-81.2574,1.21,21.5,1111122 
NERRS,ioos:station:NOAA.NERRS:gtmpcwq:1,2014-07-05T15:45:00Z,29.6671,-81.2574,1.18,20.5,1111122 
NERRS,ioos:station:NOAA.NERRS:gtmpcwq:1,2014-07-05T16:45:00Z,29.6671,-81.2574,1.15,20.6,1111122 
NERRS,ioos:station:NOAA.NERRS:gtmpcwq:1,2014-07-05T17:45:00Z,29.6671,-81.2574,1.17,19.1,1111122 
NERRS,ioos:station:NOAA.NERRS:gtmpcwq:1,2014-07-05T18:45:00Z,29.6671,-81.2574,1.22,20.2,1111122 
NERRS,ioos:station:NOAA.NERRS:gtmpcwq:1,2014-07-05T19:45:00Z,29.6671,-81.2574,1.32,17.6,1111122 
NERRS,ioos:station:NOAA.NERRS:gtmpcwq:1,2014-07-05T20:45:00Z,29.6671,-81.2574,1.46,18.9,1111122 
NERRS,ioos:station:NOAA.NERRS:gtmpcwq:1,2014-07-05T21:45:00Z,29.6671,-81.2574,1.56,23.3,1111122 
NERRS,ioos:station:NOAA.NERRS:gtmpcwq:1,2014-07-05T22:45:00Z,29.6671,-81.2574,1.6,24.6,1111122 
NERRS,ioos:station:NOAA.NERRS:gtmpcwq:1,2014-07-05T23:45:00Z,29.6671,-81.2574,1.54,23.2,1111122 
NERRS,ioos:station:NOAA.NERRS:gtmpcwq:1,2014-07-06T00:45:00Z,29.6671,-81.2574,1.45,23.0,1111122 
NERRS,ioos:station:NOAA.NERRS:gtmpcwq:1,2014-07-06T01:45:00Z,29.6671,-81.2574,1.38,22.6,1111122 
NERRS,ioos:station:NOAA.NERRS:gtmpcwq:1,2014-07-06T02:45:00Z,29.6671,-81.2574,1.33,22.3,1111122 
NERRS,ioos:station:NOAA.NERRS:gtmpcwq:1,2014-07-06T03:45:00Z,29.6671,-81.2574,1.26,21.8,1111122 
NERRS,ioos:station:NOAA.NERRS:gtmpcwq:1,2014-07-06T04:45:00Z,29.6671,-81.2574,1.22,20.6,1111122 
NERRS,ioos:station:NOAA.NERRS:gtmpcwq:1,2014-07-06T06:45:00Z,29.6671,-81.2574,1.3,13.4,1111122 
NERRS,ioos:station:NOAA.NERRS:gtmpcwq:1,2014-07-06T07:45:00Z,29.6671,-81.2574,1.41,17.1,1111122 
NERRS,ioos:station:NOAA.NERRS:gtmpcwq:1,2014-07-06T08:45:00Z,29.6671,-81.2574,1.52,23.6,1111122 
NERRS,ioos:station:NOAA.NERRS:gtmpcwq:1,2014-07-06T09:45:00Z,29.6671,-81.2574,1.61,25.5,1111122 
NERRS,ioos:station:NOAA.NERRS:gtmpcwq:1,2014-07-06T10:45:00Z,29.6671,-81.2574,1.62,25.9,1111122 
NERRS,ioos:station:NOAA.NERRS:gtmpcwq:1,2014-07-06T11:45:00Z,29.6671,-81.2574,1.55,24.0,1111122 
NERRS,ioos:station:NOAA.NERRS:gtmpcwq:1,2014-07-06T12:45:00Z,29.6671,-81.2574,1.47,23.0,1111122 
NERRS,ioos:station:NOAA.NERRS:gtmpcwq:1,2014-07-06T13:45:00Z,29.6671,-81.2574,1.4,23.9,1111122 
NERRS,ioos:station:NOAA.NERRS:gtmpcwq:1,2014-07-06T14:45:00Z,29.6671,-81.2574,1.33,23.3,1111122 
NERRS,ioos:station:NOAA.NERRS:gtmpcwq:1,2014-07-06T17:45:00Z,29.6671,-81.2574,1.23,18.6,1111122 
NERRS,ioos:station:NOAA.NERRS:gtmpcwq:1,2014-07-06T18:45:00Z,29.6671,-81.2574,1.3,17.5,1111122 
NERRS,ioos:station:NOAA.NERRS:gtmpcwq:1,2014-07-06T19:45:00Z,29.6671,-81.2574,1.41,19.1,1111122 
NERRS,ioos:station:NOAA.NERRS:gtmpcwq:1,2014-07-06T20:45:00Z,29.6671,-81.2574,1.55,21.4,1111122 
NERRS,ioos:station:NOAA.NERRS:gtmpcwq:1,2014-07-06T21:45:00Z,29.6671,-81.2574,1.67,24.0,1111122 
NERRS,ioos:station:NOAA.NERRS:gtmpcwq:1,2014-07-06T22:45:00Z,29.6671,-81.2574,1.73,26.9,1111122 
NERRS,ioos:station:NOAA.NERRS:gtmpcwq:1,2014-07-06T23:45:00Z,29.6671,-81.2574,1.73,28.3,1111122 
NERRS,ioos:station:NOAA.NERRS:gtmpcwq:1,2014-07-07T00:45:00Z,29.6671,-81.2574,1.66,26.9,1111122 
NERRS,ioos:station:NOAA.NERRS:gtmpcwq:1,2014-07-07T01:45:00Z,29.6671,-81.2574,1.58,24.2,1111122 
NERRS,ioos:station:NOAA.NERRS:gtmpcwq:1,2014-07-07T02:45:00Z,29.6671,-81.2574,1.49,19.7,1111122 
NERRS,ioos:station:NOAA.NERRS:gtmpcwq:1,2014-07-07T03:45:00Z,29.6671,-81.2574,1.4,19.1,1111122 
NERRS,ioos:station:NOAA.NERRS:gtmpcwq:1,2014-07-07T04:45:00Z,29.6671,-81.2574,1.33,20.5,1111122 
NERRS,ioos:station:NOAA.NERRS:gtmpcwq:1,2014-07-07T05:45:00Z,29.6671,-81.2574,1.28,18.9,1111122 
NERRS,ioos:station:NOAA.NERRS:gtmpcwq:1,2014-07-07T06:45:00Z,29.6671,-81.2574,1.28,16.2,1111122 
NERRS,ioos:station:NOAA.NERRS:gtmpcwq:1,2014-07-07T07:45:00Z,29.6671,-81.2574,1.36,15.8,1111122 
NERRS,ioos:station:NOAA.NERRS:gtmpcwq:1,2014-07-07T08:45:00Z,29.6671,-81.2574,1.47,20.5,1111122 
NERRS,ioos:station:NOAA.NERRS:gtmpcwq:1,2014-07-07T09:45:00Z,29.6671,-81.2574,1.58,22.3,1111122 
NERRS,ioos:station:NOAA.NERRS:gtmpcwq:1,2014-07-07T10:45:00Z,29.6671,-81.2574,1.64,26.0,1111122 
NERRS,ioos:station:NOAA.NERRS:gtmpcwq:1,2014-07-07T11:45:00Z,29.6671,-81.2574,1.63,26.5,1111122 
NERRS,ioos:station:NOAA.NERRS:gtmpcwq:1,2014-07-07T12:45:00Z,29.6671,-81.2574,1.56,23.5,1111122 
NERRS,ioos:station:NOAA.NERRS:gtmpcwq:1,2014-07-07T13:45:00Z,29.6671,-81.2574,1.48,23.8,1111122 
NERRS,ioos:station:NOAA.NERRS:gtmpcwq:1,2014-07-07T14:45:00Z,29.6671,-81.2574,1.41,23.6,1111122 
NERRS,ioos:station:NOAA.NERRS:gtmpcwq:1,2014-07-07T16:45:00Z,29.6671,-81.2574,1.27,22.1,1111122 
NERRS,ioos:station:NOAA.NERRS:gtmpcwq:1,2014-07-07T17:45:00Z,29.6671,-81.2574,1.22,20.8,1111122 
NERRS,ioos:station:NOAA.NERRS:gtmpcwq:1,2014-07-07T19:45:00Z,29.6671,-81.2574,1.26,15.6,1111122 
NERRS,ioos:station:NOAA.NERRS:gtmpcwq:1,2014-07-07T22:45:00Z,29.6671,-81.2574,1.64,23.8,1111122 
NERRS,ioos:station:NOAA.NERRS:gtmpcwq:1,2014-07-07T23:45:00Z,29.6671,-81.2574,1.7,25.7,1111122 
NERRS,ioos:station:NOAA.NERRS:gtmpcwq:1,2014-07-08T00:45:00Z,29.6671,-81.2574,1.7,27.6,1111122 
NERRS,ioos:station:NOAA.NERRS:gtmpcwq:1,2014-07-08T01:45:00Z,29.6671,-81.2574,1.63,26.1,1111122 
NERRS,ioos:station:NOAA.NERRS:gtmpcwq:1,2014-07-08T02:45:00Z,29.6671,-81.2574,1.56,23.2,1111122 
NERRS,ioos:station:NOAA.NERRS:gtmpcwq:1,2014-07-08T03:45:00Z,29.6671,-81.2574,1.47,20.4,1111122 
NERRS,ioos:station:NOAA.NERRS:gtmpcwq:1,2014-07-08T04:45:00Z,29.6671,-81.2574,1.39,18.5,1111122 
NERRS,ioos:station:NOAA.NERRS:gtmpcwq:1,2014-07-08T05:45:00Z,29.6671,-81.2574,1.32,21.0,1111122 
NERRS,ioos:station:NOAA.NERRS:gtmpcwq:1,2014-07-08T06:45:00Z,29.6671,-81.2574,1.26,20.1,1111122 
NERRS,ioos:station:NOAA.NERRS:gtmpcwq:1,2014-07-08T07:45:00Z,29.6671,-81.2574,1.23,17.1,1111122 
NERRS,ioos:station:NOAA.NERRS:gtmpcwq:1,2014-07-08T08:45:00Z,29.6671,-81.2574,1.3,14.6,1111122 
NERRS,ioos:station:NOAA.NERRS:gtmpcwq:1,2014-07-08T10:45:00Z,29.6671,-81.2574,1.5,21.2,1111122 
NERRS,ioos:station:NOAA.NERRS:gtmpcwq:1,2014-07-08T11:45:00Z,29.6671,-81.2574,1.57,23.3,1111122 
NERRS,ioos:station:NOAA.NERRS:gtmpcwq:1,2014-07-08T12:45:00Z,29.6671,-81.2574,1.54,25.5,1111122 
NERRS,ioos:station:NOAA.NERRS:gtmpcwq:1,2014-07-08T13:45:00Z,29.6671,-81.2574,1.47,22.5,1111122 
NERRS,ioos:station:NOAA.NERRS:gtmpcwq:1,2014-07-08T14:45:00Z,29.6671,-81.2574,1.4,24.3,1111122 
NERRS,ioos:station:NOAA.NERRS:gtmpcwq:1,2014-07-08T15:45:00Z,29.6671,-81.2574,1.33,23.6,1111122 
NERRS,ioos:station:NOAA.NERRS:gtmpcwq:1,2014-07-08T16:45:00Z,29.6671,-81.2574,1.26,22.1,1111122 
NERRS,ioos:station:NOAA.NERRS:gtmpcwq:1,2014-07-08T17:45:00Z,29.6671,-81.2574,1.23,20.9,1111122 
NERRS,ioos:station:NOAA.NERRS:gtmpcwq:1,2014-07-08T18:45:00Z,29.6671,-81.2574,1.18,21.7,1111122 
NERRS,ioos:station:NOAA.NERRS:gtmpcwq:1,2014-07-08T19:45:00Z,29.6671,-81.2574,1.14,21.2,1111122 
NERRS,ioos:station:NOAA.NERRS:gtmpcwq:1,2014-07-08T20:45:00Z,29.6671,-81.2574,1.2,12.7,1111122 
NERRS,ioos:station:NOAA.NERRS:gtmpcwq:1,2014-07-08T22:45:00Z,29.6671,-81.2574,1.44,18.5,1111122 
NERRS,ioos:station:NOAA.NERRS:gtmpcwq:1,2014-07-09T00:45:00Z,29.6671,-81.2574,1.68,24.2,1111122 
NERRS,ioos:station:NOAA.NERRS:gtmpcwq:1,2014-07-09T01:45:00Z,29.6671,-81.2574,1.67,25.2,1111122 
NERRS,ioos:station:NOAA.NERRS:gtmpcwq:1,2014-07-09T02:45:00Z,29.6671,-81.2574,1.59,22.4,1111122 
NERRS,ioos:station:NOAA.NERRS:gtmpcwq:1,2014-07-09T03:45:00Z,29.6671,-81.2574,1.49,20.8,1111122 
NERRS,ioos:station:NOAA.NERRS:gtmpcwq:1,2014-07-09T04:45:00Z,29.6671,-81.2574,1.4,19.1,1111122 
NERRS,ioos:station:NOAA.NERRS:gtmpcwq:1,2014-07-09T05:45:00Z,29.6671,-81.2574,1.31,19.3,1111122 
NERRS,ioos:station:NOAA.NERRS:gtmpcwq:1,2014-07-09T06:45:00Z,29.6671,-81.2574,1.25,20.3,1111122 
NERRS,ioos:station:NOAA.NERRS:gtmpcwq:1,2014-07-09T07:45:00Z,29.6671,-81.2574,1.19,19.3,1111122 
NERRS,ioos:station:NOAA.NERRS:gtmpcwq:1,2014-07-09T08:45:00Z,29.6671,-81.2574,1.16,17.5,1111122 
NERRS,ioos:station:NOAA.NERRS:gtmpcwq:1,2014-07-09T09:45:00Z,29.6671,-81.2574,1.21,14.0,1111122 
NERRS,ioos:station:NOAA.NERRS:gtmpcwq:1,2014-07-09T10:45:00Z,29.6671,-81.2574,1.3,16.0,1111122 
NERRS,ioos:station:NOAA.NERRS:gtmpcwq:1,2014-07-09T11:45:00Z,29.6671,-81.2574,1.41,18.5,1111122 
NERRS,ioos:station:NOAA.NERRS:gtmpcwq:1,2014-07-09T12:45:00Z,29.6671,-81.2574,1.49,20.9,1111122 
NERRS,ioos:station:NOAA.NERRS:gtmpcwq:1,2014-07-09T14:45:00Z,29.6671,-81.2574,1.4,20.1,1111122 
NERRS,ioos:station:NOAA.NERRS:gtmpcwq:1,2014-07-09T15:45:00Z,29.6671,-81.2574,1.34,21.1,1111122 
NERRS,ioos:station:NOAA.NERRS:gtmpcwq:1,2014-07-09T16:45:00Z,29.6671,-81.2574,1.29,20.7,1111122 
NERRS,ioos:station:NOAA.NERRS:gtmpcwq:1,2014-07-09T17:45:00Z,29.6671,-81.2574,1.23,20.2,1111122 
NERRS,ioos:station:NOAA.NERRS:gtmpcwq:1,2014-07-09T19:45:00Z,29.6671,-81.2574,1.15,20.0,1111122 
NERRS,ioos:station:NOAA.NERRS:gtmpcwq:1,2014-07-09T20:45:00Z,29.6671,-81.2574,1.12,18.9,1111122 
NERRS,ioos:station:NOAA.NERRS:gtmpcwq:1,2014-07-09T21:45:00Z,29.6671,-81.2574,1.16,12.6,1111122 
NERRS,ioos:station:NOAA.NERRS:gtmpcwq:1,2014-07-09T22:45:00Z,29.6671,-81.2574,1.25,15.3,1111122 
NERRS,ioos:station:NOAA.NERRS:gtmpcwq:1,2014-07-09T23:45:00Z,29.6671,-81.2574,1.4,17.1,1111122 
NERRS,ioos:station:NOAA.NERRS:gtmpcwq:1,2014-07-10T00:45:00Z,29.6671,-81.2574,1.57,19.5,1111122 
NERRS,ioos:station:NOAA.NERRS:gtmpcwq:1,2014-07-10T02:45:00Z,29.6671,-81.2574,1.64,22.6,1111122 
NERRS,ioos:station:NOAA.NERRS:gtmpcwq:1,2014-07-10T03:45:00Z,29.6671,-81.2574,1.55,20.2,1111122 
NERRS,ioos:station:NOAA.NERRS:gtmpcwq:1,2014-07-10T04:45:00Z,29.6671,-81.2574,1.46,18.3,1111122 
NERRS,ioos:station:NOAA.NERRS:gtmpcwq:1,2014-07-10T05:45:00Z,29.6671,-81.2574,1.38,16.7,1111122 
NERRS,ioos:station:NOAA.NERRS:gtmpcwq:1,2014-07-10T06:45:00Z,29.6671,-81.2574,1.3,15.5,1111122 
NERRS,ioos:station:NOAA.NERRS:gtmpcwq:1,2014-07-10T07:45:00Z,29.6671,-81.2574,1.24,17.2,1111122 
NERRS,ioos:station:NOAA.NERRS:gtmpcwq:1,2014-07-10T09:45:00Z,29.6671,-81.2574,1.16,15.9,1111122 
NERRS,ioos:station:NOAA.NERRS:gtmpcwq:1,2014-07-10T10:45:00Z,29.6671,-81.2574,1.21,12.2,1111122 
NERRS,ioos:station:NOAA.NERRS:gtmpcwq:1,2014-07-10T11:45:00Z,29.6671,-81.2574,1.3,14.6,1111122 
NERRS,ioos:station:NOAA.NERRS:gtmpcwq:1,2014-07-10T12:45:00Z,29.6671,-81.2574,1.41,16.9,1111122 
NERRS,ioos:station:NOAA.NERRS:gtmpcwq:1,2014-07-10T13:45:00Z,29.6671,-81.2574,1.51,19.7,1111122 
NERRS,ioos:station:NOAA.NERRS:gtmpcwq:1,2014-07-10T14:45:00Z,29.6671,-81.2574,1.5,21.8,1111122 
NERRS,ioos:station:NOAA.NERRS:gtmpcwq:1,2014-07-10T15:45:00Z,29.6671,-81.2574,1.44,19.6,1111122 
NERRS,ioos:station:NOAA.NERRS:gtmpcwq:1,2014-07-10T17:45:00Z,29.6671,-81.2574,1.3,21.0,1111122 
NERRS,ioos:station:NOAA.NERRS:gtmpcwq:1,2014-07-10T18:45:00Z,29.6671,-81.2574,1.24,20.0,1111122 
NERRS,ioos:station:NOAA.NERRS:gtmpcwq:1,2014-07-10T20:45:00Z,29.6671,-81.2574,1.14,16.9,1111122 
NERRS,ioos:station:NOAA.NERRS:gtmpcwq:1,2014-07-10T21:45:00Z,29.6671,-81.2574,1.1,17.5,1111122 
NERRS,ioos:station:NOAA.NERRS:gtmpcwq:1,2014-07-10T23:45:00Z,29.6671,-81.2574,1.28,15.4,1111122 
NERRS,ioos:station:NOAA.NERRS:gtmpcwq:1,2014-07-11T00:45:00Z,29.6671,-81.2574,1.45,18.0,1111122 
NERRS,ioos:station:NOAA.NERRS:gtmpcwq:1,2014-07-11T02:45:00Z,29.6671,-81.2574,1.71,23.2,1111122 
NERRS,ioos:station:NOAA.NERRS:gtmpcwq:1,2014-07-11T03:45:00Z,29.6671,-81.2574,1.71,24.9,1111122 
NERRS,ioos:station:NOAA.NERRS:gtmpcwq:1,2014-07-11T04:45:00Z,29.6671,-81.2574,1.62,22.3,1111122 
NERRS,ioos:station:NOAA.NERRS:gtmpcwq:1,2014-07-11T06:45:00Z,29.6671,-81.2574,1.42,17.3,1111122 
NERRS,ioos:station:NOAA.NERRS:gtmpcwq:1,2014-07-11T07:45:00Z,29.6671,-81.2574,1.34,15.8,1111122 
NERRS,ioos:station:NOAA.NERRS:gtmpcwq:1,2014-07-11T08:45:00Z,29.6671,-81.2574,1.27,15.5,1111122 
NERRS,ioos:station:NOAA.NERRS:gtmpcwq:1,2014-07-11T09:45:00Z,29.6671,-81.2574,1.22,16.6,1111122 
NERRS,ioos:station:NOAA.NERRS:gtmpcwq:1,2014-07-11T10:45:00Z,29.6671,-81.2574,1.2,16.0,1111122 
NERRS,ioos:station:NOAA.NERRS:gtmpcwq:1,2014-07-11T11:45:00Z,29.6671,-81.2574,1.26,13.2,1111122 
NERRS,ioos:station:NOAA.NERRS:gtmpcwq:1,2014-07-11T12:45:00Z,29.6671,-81.2574,1.37,15.9,1111122 
NERRS,ioos:station:NOAA.NERRS:gtmpcwq:1,2014-07-11T13:45:00Z,29.6671,-81.2574,1.5,18.8,1111122 
NERRS,ioos:station:NOAA.NERRS:gtmpcwq:1,2014-07-11T14:45:00Z,29.6671,-81.2574,1.59,21.8,1111122 
NERRS,ioos:station:NOAA.NERRS:gtmpcwq:1,2014-07-11T15:45:00Z,29.6671,-81.2574,1.57,23.3,1111122 
NERRS,ioos:station:NOAA.NERRS:gtmpcwq:1,2014-07-11T16:45:00Z,29.6671,-81.2574,1.49,20.1,1111122 
NERRS,ioos:station:NOAA.NERRS:gtmpcwq:1,2014-07-11T17:45:00Z,29.6671,-81.2574,1.4,21.9,1111122 
NERRS,ioos:station:NOAA.NERRS:gtmpcwq:1,2014-07-11T18:45:00Z,29.6671,-81.2574,1.34,20.9,1111122 
NERRS,ioos:station:NOAA.NERRS:gtmpcwq:1,2014-07-11T19:45:00Z,29.6671,-81.2574,1.28,20.3,1111122 
NERRS,ioos:station:NOAA.NERRS:gtmpcwq:1,2014-07-11T20:45:00Z,29.6671,-81.2574,1.21,20.3,1111122 
NERRS,ioos:station:NOAA.NERRS:gtmpcwq:1,2014-07-11T22:45:00Z,29.6671,-81.2574,1.16,16.2,1111122 
NERRS,ioos:station:NOAA.NERRS:gtmpcwq:1,2014-07-11T23:45:00Z,29.6671,-81.2574,1.23,11.9,1111122 
NERRS,ioos:station:NOAA.NERRS:gtmpcwq:1,2014-07-12T01:45:00Z,29.6671,-81.2574,1.53,18.8,1111122 
NERRS,ioos:station:NOAA.NERRS:gtmpcwq:1,2014-07-12T02:45:00Z,29.6671,-81.2574,1.71,21.8,1111122 
NERRS,ioos:station:NOAA.NERRS:gtmpcwq:1,2014-07-12T03:45:00Z,29.6671,-81.2574,1.78,24.6,1111122 
NERRS,ioos:station:NOAA.NERRS:gtmpcwq:1,2014-07-12T04:45:00Z,29.6671,-81.2574,1.77,26.1,1111122 
NERRS,ioos:station:NOAA.NERRS:gtmpcwq:1,2014-07-12T05:45:00Z,29.6671,-81.2574,1.7,23.6,1111122 
NERRS,ioos:station:NOAA.NERRS:gtmpcwq:1,2014-07-12T06:45:00Z,29.6671,-81.2574,1.6,19.7,1111122 
NERRS,ioos:station:NOAA.NERRS:gtmpcwq:1,2014-07-12T07:45:00Z,29.6671,-81.2574,1.49,17.1,1111122 
NERRS,ioos:station:NOAA.NERRS:gtmpcwq:1,2014-07-12T08:45:00Z,29.6671,-81.2574,1.4,15.6,1111122 
NERRS,ioos:station:NOAA.NERRS:gtmpcwq:1,2014-07-12T09:45:00Z,29.6671,-81.2574,1.32,14.2,1111122 
NERRS,ioos:station:NOAA.NERRS:gtmpcwq:1,2014-07-12T10:45:00Z,29.6671,-81.2574,1.27,13.7,1111122 
NERRS,ioos:station:NOAA.NERRS:gtmpcwq:1,2014-07-12T11:45:00Z,29.6671,-81.2574,1.25,14.2,1111122 
NERRS,ioos:station:NOAA.NERRS:gtmpcwq:1,2014-07-12T12:45:00Z,29.6671,-81.2574,1.34,13.9,1111122 
NERRS,ioos:station:NOAA.NERRS:gtmpcwq:1,2014-07-12T13:45:00Z,29.6671,-81.2574,1.47,16.8,1111122 
NERRS,ioos:station:NOAA.NERRS:gtmpcwq:1,2014-07-12T14:45:00Z,29.6671,-81.2574,1.61,17.9,1111122 
NERRS,ioos:station:NOAA.NERRS:gtmpcwq:1,2014-07-12T15:45:00Z,29.6671,-81.2574,1.68,21.0,1111122 
NERRS,ioos:station:NOAA.NERRS:gtmpcwq:1,2014-07-12T17:45:00Z,29.6671,-81.2574,1.57,18.2,1111122 
NERRS,ioos:station:NOAA.NERRS:gtmpcwq:1,2014-07-12T19:45:00Z,29.6671,-81.2574,1.4,14.5,1111122 